This is the latest recevied weather packets stored in our database for station/object K7CTM. If no packets are shown the sender has not sent any weather packets the latest 10 day(s).
| Time | Temp. | Humidity | Pressure | Rain* | Wind** | Luminosity | Snow |
|---|---|---|---|---|---|---|---|
| 1788563809 | 32.22° C | 17% | 1019.8 hPa | 0 mm | - | 275 W/m² | - |
| 1788563505 | 31.67° C | 17% | 1019.8 hPa | 0 mm | - | 291 W/m² | - |
| 1788563204 | 32.78° C | 16% | 1019.8 hPa | 0 mm | - | 310 W/m² | - |
| 1788562899 | 31.67° C | 16% | 1019.8 hPa | 0 mm | - | 323 W/m² | - |
| 1788562597 | 32.78° C | 16% | 1020 hPa | 0 mm | - | 341 W/m² | - |
| 1788562292 | 32.22° C | 16% | 1019.9 hPa | 0 mm | - | 348 W/m² | - |
| 1788561986 | 31.67° C | 17% | 1019.8 hPa | 0 mm | - | 363 W/m² | - |
| 1788561681 | 31.67° C | 16% | 1019.7 hPa | 0 mm | - | 375 W/m² | - |
| 1788561381 | 31.67° C | 16% | 1019.9 hPa | 0 mm | - | 386 W/m² | - |
| 1788561076 | 31.67° C | 16% | 1019.8 hPa | 0 mm | - | 399 W/m² | - |
| 1788560772 | 32.22° C | 16% | 1019.6 hPa | 0 mm | - | 414 W/m² | - |
| 1788560467 | 31.67° C | 16% | 1019.6 hPa | 0 mm | - | 433 W/m² | - |
| 1788560162 | 31.67° C | 16% | 1019.6 hPa | 0 mm | - | 451 W/m² | - |
| 1788559861 | 31.67° C | 16% | 1019.6 hPa | 0 mm | - | 464 W/m² | - |
| 1788559556 | 32.22° C | 16% | 1019.3 hPa | 0 mm | - | 484 W/m² | - |
| 1788559252 | 32.22° C | 16% | 1019.6 hPa | 0 mm | - | 501 W/m² | - |
| 1788558952 | 32.78° C | 16% | 1019.4 hPa | 0 mm | - | 515 W/m² | - |
| 1788558648 | 32.78° C | 16% | 1019.6 hPa | 0 mm | - | 531 W/m² | - |
| 1788558343 | 32.22° C | 16% | 1019.7 hPa | 0 mm | - | 542 W/m² | - |
| 1788558038 | 32.22° C | 16% | 1019.7 hPa | 0 mm | - | 551 W/m² | - |
| 1788557736 | 31.67° C | 16% | 1019.5 hPa | 0 mm | - | 564 W/m² | - |
| 1788557433 | 31.67° C | 16% | 1019.6 hPa | 0 mm | - | 574 W/m² | - |
| 1788557133 | 31.11° C | 16% | 1019.5 hPa | 0 mm | - | 597 W/m² | - |
| 1788556828 | 32.22° C | 16% | 1019.7 hPa | 0 mm | - | 626 W/m² | - |
| 1788556527 | 31.67° C | 16% | 1019.8 hPa | 0 mm | - | 627 W/m² | - |
* Rain latest hour (hover to see other rain measurements)
** Current wind speed in m/s (hover to see current wind gust speed)